Regional Weather Roundup
Issued by NWS Memphis, TN

Home | Current Version | Previous Version | Text Only | Print | Product List | Glossary On
Versions: 1 2 3 4 5 6 7 8 9 10 11 12 13 14 15 16 17 18 19 20 21 22 23 24 25 26 27 28 29 30 31 32 33 34 35 36 37 38 39 40 41 42 43 44 45 46 47 48 49 50
000
ASUS44 KMEG 210210
RWRMEG
MEMPHIS CWA HOURLY WEATHER ROUNDUP
NATIONAL WEATHER SERVICE MEMPHIS TN
800 PM CST SAT DEC 20 2014

...WEST TENNESSEE...

CITY           SKY/WX    TMP DP  RH WIND       PRES   REMARKS
MEMPHIS INTL   PTCLDY    43  33  68 NE7       30.24S
NWS MEMPHIS      N/A     41 N/A N/A MISG        N/A
JACKSON        CLEAR     36  29  75 CALM      30.26R
LEXINGTON      CLEAR     34  28  80 CALM      30.24S
SAVANNAH       CLEAR     37  28  70 N3        30.25R
DYERSBURG      CLEAR     36  21  55 CALM      30.28S
UNION CITY     CLEAR     30  28  93 CALM      30.25S
PARIS          CLEAR     27  23  86 E3        30.25F
HUNTINGDON     CLEAR     29  25  85 CALM      30.26S


...EASTERN ARKANSAS...

CITY           SKY/WX    TMP DP  RH WIND       PRES   REMARKS
JONESBORO      MOCLDY    36  34  92 N3        30.26S
WEST MEMPHIS   CLOUDY    43  38  82 N6        30.24R
BATESVILLE     CLOUDY    43  36  75 CALM      30.25S
NEWPORT        CLOUDY    39  38  97 NE3       30.27S
WALNUT RIDGE   CLOUDY    41  34  75 E3        30.25S
BLYTHEVILLE    CLEAR     36  33  89 NE5       30.27S WCI  32
SEARCY         CLOUDY    40  36  86 NE3       30.27R
STUTTGART      CLEAR     39  34  81 N6        30.25S WCI  35
PINE BLUFF     CLEAR     40  35  83 N5        30.24R
MONTICELLO     CLEAR     42  37  82 N3        30.23R


...NORTH MISSISSIPPI...

CITY           SKY/WX    TMP DP  RH WIND       PRES   REMARKS
TUPELO         CLEAR     37  33  85 NE7       30.23R WCI  32
OXFORD         CLEAR     36  32  87 CALM      30.24S
OLIVE BRANCH   PTCLDY    37  36  93 N5        30.24R WCI  34
TUNICA         CLEAR     37  36  93 N7        30.25S WCI  32
CLARKSDALE     CLEAR     39  37  93 N7        30.24S WCI  34
CORINTH        CLEAR     41  30  65 N5        30.24R
GRENADA        CLEAR     37  36  93 CALM      30.23R
GREENWOOD      CLEAR     40  36  86 CALM      30.21R
COLUMBUS       CLEAR     38  36  92 N2        30.21
STARKVILLE     FAIR      41  36  81 CALM      30.20S
GOLDEN TRIANGL CLEAR     43  36  75 N6        30.20


...SOUTHEAST MISSOURI...

CITY           SKY/WX    TMP DP  RH WIND       PRES   REMARKS
WEST PLAINS    CLOUDY    41  35  79 CALM      30.22S
POPLAR BLUFF   CLOUDY    42  35  76 CALM      30.26S
CAPE GIRARDEAU CLOUDY    41  35  79 CALM      30.28R


...NORTHWEST ALABAMA...

CITY           SKY/WX    TMP DP  RH WIND       PRES   REMARKS
MUSCLE SHOALS  CLEAR     44  30  57 NE7       30.24R


...MIDDLE TENNESSEE...

CITY           SKY/WX    TMP DP  RH WIND       PRES   REMARKS
NASHVILLE      MOCLDY    37  28  70 CALM      30.27R
CLARKSVILLE    CLEAR     30  27  88 CALM      30.27S
COLUMBIA       CLEAR     34  34 100 CALM      30.23R


...WESTERN KENTUCKY...

CITY           SKY/WX    TMP DP  RH WIND       PRES   REMARKS
PADUCAH        CLEAR     30  27  88 CALM      30.27S
FORT CAMPBELL  CLEAR     31  27  84 N5        30.27S WCI  26


...CENTRAL ARKANSAS...

CITY           SKY/WX    TMP DP  RH WIND       PRES   REMARKS
LITTLE ROCK    CLOUDY    44  36  73 NE3       30.25S


SKY/WX REPORTED AS FAIR MEANS FEW OR NO CLOUDS BELOW
12 THOUSAND FEET.



USA.gov is the U.S. government's official web portal to all federal, state and local government web resources and services.